This demonstration page uses our WeatherBlox Daily Observations layout. Learn more.

41.55636, -103.73856

Hourly Observations for May 27, 2015

Temp ( °F °C ) Dew Point ( °F °C ) Humidity (%) Winds ( mph kmh ) Pressure ( in mb ) Visibility ( mi km ) Precip ( " mm )
12:53 am 00:53 Cloudy 57 13.9 53 11.7 87 87 N 5 7 29.96 1015 10 16.0934 0 0.0254
1:53 am 01:53 Cloudy 56 13.3 53 11.7 90 90 ENE 7 11 29.94 1014 10 16.0934 0.01 0.254
2:53 am 02:53 Mostly Clear 53 11.7 51 10.6 93 93 SE 7 11 29.94 1014 10 16.0934 0 0
3:07 am 03:07 Mostly Clear with Nearby Thunderstorms 54 12.2 51 10.6 90 90 SE 7 11 29.94 1014 10 16.0934 0 0
3:34 am 03:34 Partly Cloudy 54 12 52 11 94 94 ESE 9 15 29.94 1014 10 16.0934 0 0
3:53 am 03:53 Mostly Clear 53 11.7 50 10 89 89 E 9 15 29.93 1014 10 16.0934 0 0
4:53 am 04:53 Mostly Cloudy 54 12.2 50 10 87 87 Calm 29.94 1014 10 16.0934 0 0
5:53 am 05:53 Cloudy 53 11.7 51 10.6 93 93 SE 8 13 29.94 1014 10 16.0934 0 0
6:53 am 06:53 Partly Cloudy 53 11.7 51 10.6 93 93 SE 9 15 29.95 1014 10 16.0934 0 0
7:53 am 07:53 Sunny 58 14.4 53 11.7 84 84 E 12 19 29.95 1014 10 16.0934 0 0
8:53 am 08:53 Mostly Cloudy 60 15.6 53 11.7 78 78 ESE 9 15 29.96 1015 10 16.0934 0 0
9:53 am 09:53 Partly Cloudy 63 17.2 54 12.2 73 73 S 10 17 29.96 1014 10 16.0934 0 0
10:53 am 10:53 Sunny 65 18.3 54 12.2 68 68 SE 8 13 29.96 1014 10 16.0934 0 0
11:53 am 11:53 Sunny 69 20.6 54 12.2 59 59 VRB 5 7 29.93 1014 10 16.0934 0 0
12:51 pm 12:51 Partly Cloudy with Nearby Thunderstorms 70 21 50 10 50 50 SSE 3 6 29.8 1009 10 16.0934 0 0
12:53 pm 12:53 Partly Cloudy with Nearby Thunderstorms 70 21.1 50 10 49 49 SE 5 7 29.9 1013 10 16.0934 0 0
1:12 pm 13:12 Mostly Cloudy with Thunderstorms 68 20 52 11 56 56 S 7 11 29.85 1011 10 16.0934 0 0
1:29 pm 13:29 Windy with Storms Likely 58 14.4 51 10.6 78 78 W 29 46 29.97 1015 1.25 2.011675 0 0.0254
1:35 pm 13:35 Cloudy with Heavy Thunderstorms 53 11.7 49 9.4 86 86 NW 7 11 30 1016 0.25 0.402335 0.36 9.144
1:43 pm 13:43 Cloudy with Heavy Thunderstorms 54 12.2 51 10.6 90 90 N 12 19 30 1016 1 1.60934 0.6 15.24
1:47 pm 13:47 Cloudy with Light Thunderstorms 55 13 52 11 88 88 NNE 8 13 29.97 1015 2.5 4.02335 0.6 15.24
1:53 pm 13:53 Cloudy with Light Thunderstorms 56 13.3 52 11.1 87 87 ENE 8 13 29.98 1015 10 16.0934 0.6 15.24
2:08 pm 14:08 Partly Cloudy with Nearby Thunderstorms 61 16 52 11 72 72 VRB 6 9 29.91 1013 10 16.0934 0 0
2:16 pm 14:16 Mostly Sunny 59 15 52 11 77 77 ESE 7 11 29.91 1013 10 16.0934 0 0
2:53 pm 14:53 Partly Cloudy 63 17 N/A N/A ESE 7 11 29.94 1014 10 16.0934 0 0.0254
3:53 pm 15:53 Sunny 67 19.4 54 12.2 63 63 SE 9 15 29.88 1012 10 16.0934 0 0
4:53 pm 16:53 Sunny 70 21.1 54 12.2 57 57 SSE 8 13 29.87 1012 10 16.0934 0 0
5:53 pm 17:53 Mostly Sunny 69 20.6 55 12.8 61 61 ESE 18 30 29.89 1012 10 16.0934 0 0
6:53 pm 18:53 Mostly Cloudy 66 18.9 53 11.7 63 63 SE 13 20 29.88 1012 10 16.0934 0 0
7:53 pm 19:53 Sunny 64 17.8 56 13.3 75 75 ESE 12 19 29.88 1012 10 16.0934 0 0
8:53 pm 20:53 Clear 62 16.7 55 12.8 78 78 SE 13 20 29.92 1013 10 16.0934 0 0
9:53 pm 21:53 Mostly Clear 61 16.1 56 13.3 84 84 S 7 11 29.95 1014 10 16.0934 0 0
10:53 pm 22:53 Cloudy 60 15.6 55 12.8 84 84 SSE 18 30 29.89 1012 10 16.0934 0.01 0.254
11:53 pm 23:53 Partly Cloudy 60 15.6 54 12.2 80 80 VRB 7 11 29.92 1013 10 16.0934 0 0

Powered by AerisWeather